User: anonymous   Login
Location: Betz
(49.1556°N, 2.9558°E)
Time: 04:04:42
(UTC+00:00)
Language:

Resurs 01 Rocket - Orbit

View from above orbital plane
View from above orbital plane
View from above satellite
View from above satellite

Ground track
Ground track

The orbit data is extracted from the following two-line orbital elements,

1 23343U 94074B   21021.75347800  .00000002  00000-0  75097-5 0  9994
2 23343  97.9698  78.4509 0007353 157.3019 314.7675 14.76858714410630
Epoch (UTC): 21 January 2021 18:05:00
Eccentricity: 0.0007353
inclination: 97.9698°
perigee height: 634 km
apogee height: 644 km
right ascension of ascending node: 78.4509°
argument of perigee: 157.3019°
revolutions per day: 14.76858714
mean anomaly at epoch: 314.7675°
orbit number at epoch: 41063

The dashed part of the orbit path shows where the satellite is in the earth's shadow,  

DLR